Location: Holbach
(51.5399°N, 10.6036°E)
Time: 02:50:51
(UTC+00:00)

Okean 1 Rocket - Pass Details

Date: 18 September 2020
Orbit: 606 x 635 km, 82.5° (Epoch: 22 October)

Event Time Altitude Azimuth Distance (km) Brightness Sun altitude
Exits shadow 19:51:19 45° 189° (S) 870 3.6 -22.3°
Maximum altitude 19:52:41 89° 101° (E) 643 3.0 -22.5°
Drops below altitude 10° 19:57:13 10° 11° (N) 2,036 6.0 -23.1°
Sets 19:59:29 0° 11° (N) 2,948 6.9 -23.4°
